This is the latest recevied weather packets stored in our database for station/object JF2ZGN-13. If no packets are shown the sender has not sent any weather packets the latest 10 day(s).
| Time | Temp. | Humidity | Pressure | Rain* | Wind** | Luminosity | Snow |
|---|---|---|---|---|---|---|---|
| 1778116127 | 17.22° C | 76% | 908.8 hPa | 0.25 mm | - | - | - |
| 1778115527 | 17.22° C | 77% | 908.8 hPa | 0.25 mm | - | - | - |
| 1778114926 | 17.22° C | 77% | 908.8 hPa | 0.25 mm | - | - | - |
| 1778114327 | 17.22° C | 77% | 908.8 hPa | 0.25 mm | - | - | - |
| 1778113726 | 16.67° C | 76% | 908.7 hPa | 0.25 mm | - | - | - |
| 1778113125 | 17.22° C | 77% | 908.8 hPa | 0.25 mm | - | - | - |
| 1778112525 | 17.22° C | 75% | 908.7 hPa | 0.25 mm | - | - | - |
| 1778111925 | 17.22° C | 74% | 908.8 hPa | 0.25 mm | - | - | - |
| 1778111324 | 17.22° C | 73% | 908.8 hPa | 0.25 mm | - | - | - |
| 1778110723 | 16.67° C | 74% | 908.8 hPa | 0.25 mm | - | - | - |
| 1778110123 | 16.67° C | 73% | 908.9 hPa | 0.25 mm | - | - | - |
| 1778109522 | 16.67° C | 72% | 908.8 hPa | 0.25 mm | - | - | - |
| 1778108922 | 16.11° C | 72% | 908.6 hPa | 0.25 mm | - | - | - |
| 1778108322 | 15.56° C | 70% | 908.8 hPa | 0.25 mm | - | - | - |
| 1778107721 | 15.56° C | 69% | 908.8 hPa | 0.25 mm | - | - | - |
| 1778107121 | 15.56° C | 64% | 908.8 hPa | 0.25 mm | - | - | - |
| 1778106520 | 15° C | 55% | 908.7 hPa | 0.25 mm | - | - | - |
| 1778105919 | 15° C | 50% | 908.8 hPa | 0.25 mm | - | - | - |
| 1778105319 | 14.44° C | 48% | 908.8 hPa | 0.25 mm | - | - | - |
| 1778104718 | 14.44° C | 44% | 908.7 hPa | 0.25 mm | - | - | - |
| 1778104118 | 14.44° C | 41% | 908.7 hPa | 0.25 mm | - | - | - |
| 1778103517 | 14.44° C | 37% | 908.7 hPa | 0.25 mm | - | - | - |
| 1778102917 | 14.44° C | 33% | 908.7 hPa | 0.25 mm | - | - | - |
| 1778102317 | 13.89° C | 32% | 908.7 hPa | 0.25 mm | - | - | - |
| 1778101716 | 13.89° C | 34% | 908.8 hPa | 0.25 mm | - | - | - |
* Rain since midnight (hover to see other rain measurements)
** Current wind speed in m/s (hover to see current wind gust speed)